Flag for New Zealand Weather past 2 weeks in Auckland, New Zealand

Now
54 °F

Overcast.


Feels Like: 53 °F
Forecast: 45 / 56 °F
Wind: 3 mph from Southwest

Location: Auckland Airport

Current Time: May 27, 2015 at 1:50:40 PM

Latest Report: May 27, 2015 at 1:30 PM


Visibility: N/A

Pressure: 29.95 "Hg

Humidity: 82%

Dew point: 48 °F

Location of AucklandLocation

Historic Weather in Auckland — Graph

°F

Auckland temperature yesterday

Maximum temperature yesterday: 57 °F (at 12:00 PM)
Minimum temperature yesterday: 52 °F (at 1:00 AM)
Average temperature yesterday: 54 °F

Past Weeks' High & Low Weather Summary

 TemperatureHumidityPressure
High66 °F (May 13, 12:30 PM)100% (May 14, 11:30 PM)30.21 "Hg (May 14, 11:30 PM)
Low45 °F (May 20, 7:00 AM)47% (May 25, 12:30 PM)29.15 "Hg (May 23, 6:30 PM)
Average56 °F82%29.86 "Hg
* Reported May 12 12:00 Noon — May 27 12:30 PM, Auckland, Weather by CustomWeather, © 2015

Note: Actual official high and low records may vary slightly from our data, if they occured in-between our weather recording intervals... More about our weather records

Advertising

Auckland weather history for previous 24 hours

 ConditionsComfort  
Time TempWeatherWind HumidityBarometerVisibility
12:30 PM
Wed, May 27
54 °FLight rain. Mostly cloudy.6 mph88%29.98 "HgN/A
12:00 PM55 °FPartly sunny.3 mph82%29.98 "HgN/A
11:30 AM55 °FScattered clouds.1 mph77%29.98 "HgN/A
11:00 AM54 °FOvercast.No wind82%29.98 "HgN/A
10:30 AM52 °FLight rain. Overcast.2 mph88%29.98 "HgN/A
10:00 AM54 °FSprinkles. More clouds than sun.1 mph82%29.95 "HgN/A
9:30 AM52 °FScattered clouds.2 mph88%29.95 "HgN/A
9:00 AM52 °FCool.3 mph88%29.95 "HgN/A
8:30 AM50 °FScattered showers. Passing clouds.3 mph88%29.95 "HgN/A
8:00 AM50 °FPartly sunny.2 mph88%29.92 "HgN/A
7:30 AM50 °FScattered showers. Overcast.5 mph88%29.92 "HgN/A
7:00 AM52 °FPartly sunny.5 mph82%29.92 "HgN/A
6:30 AM52 °FScattered clouds.8 mph82%29.92 "HgN/A
6:00 AM50 °FPassing clouds.6 mph88%29.89 "HgN/A
5:30 AM54 °FOvercast.9 mph82%29.89 "HgN/A
5:00 AM54 °FPassing clouds.12 mph77%29.89 "HgN/A
4:30 AM54 °FOvercast.12 mph77%29.89 "HgN/A
4:00 AM54 °FPassing clouds.7 mph82%29.92 "HgN/A
3:30 AM54 °FCool.12 mph77%29.92 "HgN/A
3:00 AM54 °FSprinkles. Passing clouds.12 mph82%29.92 "HgN/A
2:30 AM52 °FCool.9 mph77%29.92 "HgN/A
2:00 AM54 °FPassing clouds.12 mph77%29.92 "HgN/A
1:30 AM54 °FPassing clouds.12 mph77%29.92 "HgN/A
1:00 AM54 °FLight rain. Partly cloudy.16 mph77%29.92 "HgN/A
12:30 AM54 °FPassing clouds.16 mph72%29.92 "HgN/A
12:00 AM54 °FCool.15 mph77%29.92 "HgN/A
11:30 PM
Tue, May 26
54 °FPassing clouds.15 mph77%29.92 "HgN/A
11:00 PM54 °FPassing clouds.16 mph77%29.92 "HgN/A
10:30 PM54 °FPartly cloudy.13 mph82%29.92 "HgN/A
10:00 PM52 °FPartly cloudy.13 mph94%29.92 "HgN/A
9:30 PM54 °FPartly cloudy.13 mph88%29.92 "HgN/A
9:00 PM54 °FPartly cloudy.17 mph82%29.92 "HgN/A
8:30 PM54 °FPassing clouds.14 mph82%29.92 "HgN/A
8:00 PM54 °FLight rain. Passing clouds.15 mph82%29.92 "HgN/A
7:30 PM54 °FCool.17 mph77%29.92 "HgN/A
7:00 PM54 °FPassing clouds.18 mph82%29.92 "HgN/A
6:30 PM54 °FSprinkles. Partly cloudy.15 mph88%29.92 "HgN/A
6:00 PM55 °FPartly cloudy.18 mph77%29.92 "HgN/A
5:30 PM54 °FPassing clouds.18 mph82%29.92 "HgN/A
5:00 PM52 °FLight rain. Partly cloudy.23 mph94%29.92 "Hg3 mi
4:30 PM54 °FPassing clouds.16 mph82%29.92 "HgN/A
4:00 PM54 °FBroken clouds.18 mph82%29.92 "HgN/A
3:30 PM54 °FSprinkles. Broken clouds.23 mph88%29.92 "Hg5 mi
3:00 PM55 °FScattered clouds.22 mph82%29.92 "HgN/A
2:30 PM55 °FBroken clouds.23 mph77%29.92 "HgN/A
2:00 PM55 °FBroken clouds.23 mph77%29.92 "HgN/A
1:30 PM55 °FPartly sunny.20 mph77%29.92 "HgN/A
1:00 PM57 °FSprinkles. Mostly cloudy.18 mph77%29.92 "HgN/A
Weather by CustomWeather, © 2015

See weather overviewHow to use our weather pages